NOAA 12 [-]

Last updated on Fri Dec 29 2023 00:02:19 GMT+0000 (Coordinated Universal Time)

1 21263U 91032A 23361.91013524 .00000192 00000+0 97697-4 0 9992 2 21263 98.5457 352.0401 0014341 141.9084 218.3113 14.26216822696328
UTC large
Height (km)
Speed (km/s)
/
Latitude / Longitude
Inclination (degrees)
Orbital Period (minutes)
Azimuth
Elevation
Range (km)
Doppler Factor

Next 0 passes for location: London (51.5072 / 0.1276)

Sorry there are no passes over London.